Tracking 17699 objects as of 31-May-2016
HD Live streaming from Space Station
objects crossing your sky now

GLOBALSTAR M044

Track GLOBALSTAR M044 now!
10-day predictions
GLOBALSTAR M044 is classified as:


NORAD ID: 25678
Int'l Code: 1999-019C
Perigee: 1,728.2 km
Apogee: 1,737.9 km
Inclination: 52.0 °
Period: 121.0 minutes
Semi major axis: 8104 km
RCS: 2.4818 m2 (large)
Launch date: April 15, 1999
Source: Globalstar (GLOB)
Launch site: TYURATAM MISSILE AND SPACE COMPLEX (TTMTR)
Your satellite tracking list
Your tracking list is empty





NASA's NSSDC Master Catalog

Two Line Element Set (TLE):
1 25678U 99019C   16151.84391646 -.00000060  00000-0  32795-3 0  9997
2 25678  51.9938 158.3675 0005990 147.7292 277.3899 11.90171886777845
Source of the keplerian elements: AFSPC

N2YO: 679